Station WKXA1 - Safe Harbor Met Station, Weeks Bay Reserve, AL Image indicating link to RSS feed of recent meteorological observations for station WKXA1


Conditions at WKXA1 as of
(3:45 pm CDT)
2045 GMT on 05/10/2026:
     

Click on the graph icon in the table below to see a time series plot of the last five days of that observation.

5-day plot - Wind Direction Wind Direction (WDIR):SSE ( 160 deg true )
5-day plot - Wind Speed Wind Speed (WSPD): 2.9 kts
5-day plot - Atmospheric Pressure Atmospheric Pressure (PRES):30.00 in
5-day plot - Air Temperature Air Temperature (ATMP): 77.9 °F
5-day plot - Dew Point Dew Point (DEWP): 70.3 °F
5-day plot - Heat Index Heat Index (HEAT): 80.1 °F
5-day plot -  Wind Speed, Wind Gust and Atmospheric Pressure Combined plot of Wind Speed, Gust, and Air Pressure
Previous observations
TIME
(CDT)
5-day plot - Wind Direction
WDIR
 
5-day plot - Wind Speed
WSPD
kts
5-day plot - Wind Gust
GST
kts
5-day plot - Wave Height
WVHT
ft
5-day plot - Dominant Wave Period
DPD
sec
5-day plot - Average Wave Period
APD
sec
5-day plot - Mean Wave Direction
MWD
 
5-day plot - Atmospheric Pressure
PRES
in
5-day plot - Pressure Tendency
PTDY
in
5-day plot - Air Temperature
ATMP
°F
5-day plot - Water Temperature
WTMP
°F
5-day plot - Dew Point
DEWP
°F
5-day plot - Salinity
SAL
psu
5-day plot - Visibility
VIS
nmi
5-day plot - Tide (above MLLW)
TIDE
ft
2026-05-10 03:30 pmSSE 4.1-----30.00- 78.1- 70.5---
2026-05-10 03:15 pmSSE 2.9-----30.00- 78.4- 71.2---
2026-05-10 03:00 pm S 2.9-----30.00-0.03 78.3- 70.7---
2026-05-10 02:45 pmSSW 2.9-----30.00- 78.4- 70.9---
2026-05-10 02:30 pmSSW 1.9-----30.00- 78.4- 70.9---
2026-05-10 02:15 pm S 2.9-----30.00- 78.3- 71.1---
2026-05-10 02:00 pm S 1.9-----30.00-0.03 78.3- 71.4---
2026-05-10 01:45 pmSSE 4.1-----30.00- 77.4- 70.9---
2026-05-10 01:30 pmSSE 4.1-----30.00- 77.7- 70.5---
2026-05-10 01:15 pmSSE 2.9-----30.00- 79.2- 71.1---
2026-05-10 01:00 pm SW 2.9-----30.03+0.00 78.6- 71.1---
2026-05-10 12:45 pm SW 2.9-----30.03- 78.6- 71.4---
2026-05-10 12:30 pm SW 1.9-----30.03- 80.1- 71.2---
2026-05-10 12:15 pm S 1.0-----30.03- 80.4- 69.6---
2026-05-10 12:00 pmENE 1.0-----30.03+0.00 80.6- 69.3---
2026-05-10 11:45 amENE 1.9-----30.03- 80.1- 69.3---
2026-05-10 11:30 amESE 1.0-----30.03- 79.7- 68.9---
2026-05-10 11:15 amNNE 1.0-----30.03- 79.3- 68.5---
2026-05-10 11:00 am NE 1.9-----30.03+0.00 79.2- 68.7---
2026-05-10 10:45 am SE 1.0-----30.03- 78.4- 69.6---
2026-05-10 10:30 am E 1.0-----30.03- 77.2- 70.3---
2026-05-10 10:15 amNNE 1.9-----30.03- 75.7- 70.3---
2026-05-10 10:00 am NE 1.9-----30.03+0.03 75.0- 70.3---
2026-05-10 09:45 amNNE 1.9-----30.03- 74.1- 70.2---
2026-05-10 09:30 amNNE 1.9-----30.03- 72.5- 70.3---
2026-05-10 09:15 am N 1.9-----30.03- 71.4- 70.5---
2026-05-10 09:00 am N 1.9-----30.03+0.06 70.2- 69.8---
2026-05-10 08:45 am N 1.0-----30.03- 69.3- 69.3---
2026-05-10 08:30 amNNW 1.0-----30.03- 68.5- 68.5---
2026-05-10 08:15 am- 0.0-----30.03- 67.8- 67.8---
2026-05-10 08:00 amNNE 1.0-----30.03+0.09 67.5- 67.5---
2026-05-10 07:45 amNNE 1.9-----30.03- 66.9- 66.9---
2026-05-10 07:30 am N 1.0-----30.00- 66.6- 66.6---
2026-05-10 07:15 am N 1.9-----30.00- 66.0- 66.0---
2026-05-10 07:00 am N 1.9-----30.00+0.06 65.8- 65.8---
2026-05-10 06:45 am- 0.0-----29.97- 65.7- 65.7---
2026-05-10 06:30 am- 0.0-----29.97- 65.7- 65.7---
2026-05-10 06:15 am- 0.0-----29.97- 65.5- 65.5---
2026-05-10 06:00 am NE 1.0-----29.97+0.06 65.5- 65.5---
2026-05-10 05:45 am- 0.0-----29.97- 65.7- 65.7---
2026-05-10 05:30 am- 0.0-----29.94- 65.7- 65.7---
2026-05-10 05:15 am- 0.0-----29.94- 65.7- 65.7---
2026-05-10 05:00 am- 0.0-----29.94+0.03 65.7- 65.7---
2026-05-10 04:45 am- 0.0-----29.94- 65.8- 65.8---
2026-05-10 04:30 am- 0.0-----29.94- 66.0- 66.0---
2026-05-10 04:15 am- 0.0-----29.94- 66.2- 66.2---
2026-05-10 04:00 am NE 1.0-----29.94+0.03 66.4- 66.4---
2026-05-10 03:45 am N 1.0-----29.94- 66.6- 66.6---
2026-05-10 03:30 am N 1.0-----29.91- 66.7- 66.7---
2026-05-10 03:15 am- 0.0-----29.91- 66.7- 66.7---
2026-05-10 03:00 am- 0.0-----29.91-0.03 67.1- 67.1---
2026-05-10 02:45 am- 0.0-----29.91- 67.1- 67.1---
2026-05-10 02:30 am- 0.0-----29.91- 67.1- 67.1---
2026-05-10 02:15 am- 0.0-----29.91- 67.1- 67.1---
2026-05-10 02:00 am- 0.0-----29.91-0.03 67.3- 67.3---
2026-05-10 01:45 am- 0.0-----29.91- 67.3- 67.3---
2026-05-10 01:30 am- 0.0-----29.91- 67.3- 67.3---
2026-05-10 01:15 am- 0.0-----29.91- 67.3- 67.3---
2026-05-10 01:00 am- 0.0-----29.91-0.03 67.3- 67.3---
2026-05-10 12:45 am- 0.0-----29.91- 67.3- 67.3---
2026-05-10 12:30 am- 0.0-----29.91- 67.3- 66.9---
2026-05-10 12:15 am- 0.0-----29.94- 67.5- 67.1---
2026-05-10 12:00 am- 0.0-----29.94+0.03 67.8- 67.5---
2026-05-09 11:45 pm- 0.0-----29.94- 68.2- 67.8---
2026-05-09 11:30 pm- 0.0-----29.94- 68.4- 68.0---
2026-05-09 11:15 pm- 0.0-----29.91- 68.5- 68.2---
2026-05-09 11:00 pm- 0.0-----29.94+0.00 68.5- 68.2---
2026-05-09 10:45 pm- 0.0-----29.94- 68.7- 68.4---
2026-05-09 10:30 pm- 0.0-----29.94- 68.7- 68.4---
2026-05-09 10:15 pm- 0.0-----29.94- 68.7- 68.4---
2026-05-09 10:00 pm- 0.0-----29.94+0.06 68.9- 68.5---
2026-05-09 09:45 pm- 0.0-----29.94- 68.9- 68.5---
2026-05-09 09:30 pm- 0.0-----29.94- 68.9- 68.5---
2026-05-09 09:15 pm- 0.0-----29.91- 68.9- 68.5---
2026-05-09 09:00 pm- 0.0-----29.91+0.03 68.9- 68.5---
2026-05-09 08:45 pm- 0.0-----29.91- 68.9- 68.4---
2026-05-09 08:30 pm- 0.0-----29.91- 68.9- 68.4---
2026-05-09 08:15 pm- 0.0-----29.91- 69.1- 68.5---
2026-05-09 08:00 pm- 0.0-----29.94+0.06 69.3- 68.7---
2026-05-09 07:45 pm- 0.0-----29.94- 69.3- 68.7---
2026-05-09 07:30 pm- 0.0-----29.94- 69.1- 68.2---
2026-05-09 07:15 pm W 1.0-----29.91- 69.3- 68.7---
2026-05-09 07:00 pm- 0.0-----29.88+0.00 69.3- 68.4---
2026-05-09 06:45 pmESE 1.0-----29.88- 69.3- 68.4---
2026-05-09 06:30 pm E 1.0-----29.85- 69.3- 68.4---
2026-05-09 06:15 pm- 0.0-----29.88- 69.4- 68.4---
2026-05-09 06:00 pm- 0.0-----29.88+0.03 69.8- 68.7---
2026-05-09 05:45 pm- 0.0-----29.91- 70.2- 69.1---
2026-05-09 05:30 pm- 0.0-----29.91- 70.2- 68.7---
2026-05-09 05:15 pm- 0.0-----29.91- 70.2- 68.7---
2026-05-09 05:00 pm- 0.0-----29.88+0.03 70.5- 69.1---
2026-05-09 04:45 pm- 0.0-----29.88- 70.5- 69.1---
2026-05-09 04:30 pm N 1.0-----29.88- 70.5- 68.4---
2026-05-09 04:15 pm- 0.0-----29.88- 70.7- 68.5---
2026-05-09 04:00 pm- 0.0-----29.88+0.00 71.2- 69.4---